Temp
81 81 82 81 78 76 75 74 71 68 72 70 70 69 69 69 68 68 68 68 67 64 64 63 63 62 61 59 58 58 57 55
81 80 80 79 76 76 75 73 71 72 73 70 68 66 67 67 67 67 66 66 67 65 63 62 62 60 58 59 57 55 54 55
79 80 79 77 76 75 75 75 74 75 74 71 70 69 67 67 66 66 66 65 65 65 61 60 60 58 57 56 54 52 53 53
77 78 77 76 73 73 75 71 75 74 71 72 69 68 65 66 65 64 65 65 66 64 61 59 58 57 55 54 53 52 49 50
77 76 76 71 68 72 75 76 73 73 73 68 66 65 62 62 62 62 63 62 61 62 60 57 55 55 54 53 57 51 50 46
75 75 72 72 69 73 73 72 72 71 70 68 65 63 62 62 59 59 59 59 60 60 58 55 53 53 53 53 52 51 49 46
77 73 73 73 73 71 69 70 70 69 66 64 61 59 59 57 57 56 55 56 56 57 57 54 53 53 53 52 50 48 46 45
75 71 73 73 70 68 68 69 67 66 64 62 60 59 59 56 57 55 54 53 53 53 53 53 52 53 52 51 48 47 46 43
74 74 72 70 68 68 68 68 66 65 62 61 61 61 59 58 56 56 54 53 52 53 52 53 53 53 51 50 47 46 46 44
73 73 71 69 68 67 66 68 67 64 62 60 58 58 57 56 57 57 54 53 56 52 52 52 52 52 51 48 46 46 45 45
73 73 71 70 69 69 66 68 65 63 61 59 59 58 57 57 56 54 53 52 53 52 52 51 51 51 50 49 48 48 46 44
72 73 72 71 69 68 66 67 65 62 61 59 57 57 57 57 55 54 53 52 52 52 52 51 50 50 50 48 47 47 45 44
73 73 72 70 68 68 66 65 64 62 61 59 58 58 58 56 55 54 53 52 52 51 51 51 51 50 48 47 46 46 44 41
74 73 71 69 67 66 65 64 64 63 63 60 59 58 56 55 54 54 53 52 51 50 51 50 50 49 48 47 46 46 44 43
74 73 70 68 67 66 65 63 62 63 62 61 58 56 57 55 54 53 52 52 50 49 49 50 49 49 49 48 47 43 42 43
74 72 70 68 66 65 65 63 62 61 58 60 57 56 56 56 53 53 52 51 50 50 49 49 48 48 49 42 42 41 39 39
73 72 69 67 67 65 65 63 61 60 58 57 59 57 57 53 52 51 51 50 50 49 48 48 47 50 37 37 39 36 39 39
71 70 70 68 67 65 63 62 61 59 57 58 57 55 52 51 52 52 50 49 49 48 48 47 46 38 37 37 35 35 36 36
70 69 68 68 68 66 64 64 60 58 57 56 53 52 51 53 52 51 50 49 48 47 47 47 46 39 36 36 35 32 34 35
MSLP
1012.17 1012.93 1013.58 1014.34 1015.43 1016.60 1017.39 1017.99 1018.74 1019.32 1019.08 1019.47 1020.04 1020.40 1020.54 1020.84 1021.40 1021.80 1021.85 1021.98 1022.13 1022.35 1022.42 1022.62 1022.74 1022.76 1022.99 1023.11 1023.21 1023.14 1023.12 1023.11
1012.07 1012.71 1013.38 1014.20 1015.32 1016.39 1017.27 1017.98 1018.66 1018.69 1018.82 1019.31 1019.82 1020.24 1020.64 1021.29 1021.78 1021.90 1022.15 1022.25 1022.26 1022.46 1022.80 1022.91 1022.92 1023.09 1023.20 1023.28 1023.27 1023.23 1023.27 1023.16
1011.98 1012.57 1013.21 1014.04 1015.14 1016.04 1016.90 1017.56 1018.02 1018.01 1018.18 1018.88 1019.10 1019.80 1020.56 1021.11 1021.61 1021.92 1022.23 1022.44 1022.50 1022.60 1022.95 1023.12 1023.17 1023.34 1023.35 1023.32 1023.40 1023.46 1023.34 1023.45
1011.91 1012.60 1013.23 1013.91 1014.93 1015.76 1016.44 1017.18 1017.52 1017.68 1018.34 1018.93 1019.53 1020.00 1020.65 1021.11 1021.54 1022.03 1022.17 1022.36 1022.57 1022.79 1022.98 1023.11 1023.23 1023.22 1023.33 1023.32 1023.33 1023.37 1023.64 1023.79
1011.65 1012.75 1013.41 1014.23 1014.98 1015.59 1016.17 1016.64 1017.46 1018.02 1018.41 1019.08 1019.71 1020.16 1020.88 1021.37 1021.79 1022.33 1022.55 1022.83 1023.08 1023.20 1023.30 1023.45 1023.58 1023.53 1023.41 1023.24 1023.05 1023.37 1023.63 1024.02
1011.20 1012.49 1013.56 1014.35 1015.03 1015.54 1015.88 1016.75 1017.62 1018.34 1018.73 1019.18 1019.75 1020.62 1021.13 1021.74 1022.35 1022.82 1023.06 1023.17 1023.27 1023.36 1023.49 1023.66 1023.75 1023.63 1023.44 1023.22 1023.24 1023.51 1023.98 1024.55
1010.95 1012.40 1013.52 1014.45 1015.09 1015.62 1016.34 1017.04 1018.01 1018.66 1019.15 1019.67 1020.23 1021.01 1021.61 1022.31 1022.76 1023.16 1023.34 1023.57 1023.58 1023.56 1023.64 1023.78 1023.64 1023.41 1023.20 1023.26 1023.67 1024.15 1024.42 1024.64
1010.81 1012.21 1013.17 1014.08 1014.99 1015.97 1016.72 1017.45 1018.35 1019.07 1019.67 1020.30 1020.78 1021.36 1021.80 1022.49 1022.88 1023.18 1023.35 1023.66 1023.80 1023.85 1023.74 1023.67 1023.53 1023.30 1023.43 1023.64 1023.96 1024.32 1024.38 1024.63
1010.89 1011.82 1013.03 1014.32 1015.40 1016.30 1016.90 1017.60 1018.46 1019.27 1019.90 1020.43 1020.83 1021.29 1021.78 1022.29 1022.77 1022.90 1023.11 1023.50 1023.79 1023.80 1023.61 1023.49 1023.31 1023.35 1023.39 1023.68 1024.08 1024.29 1024.32 1024.53
1011.15 1012.06 1013.19 1014.46 1015.61 1016.37 1016.84 1017.48 1018.30 1019.22 1019.89 1020.42 1020.91 1021.41 1021.78 1022.33 1022.67 1022.89 1023.10 1023.42 1023.58 1023.55 1023.51 1023.49 1023.28 1023.17 1023.30 1023.62 1023.87 1023.79 1023.86 1024.06
1011.13 1012.01 1013.10 1014.18 1015.32 1016.18 1016.79 1017.31 1018.02 1018.92 1019.60 1020.39 1020.84 1021.27 1021.87 1022.25 1022.52 1022.83 1023.04 1023.49 1023.58 1023.48 1023.43 1023.42 1023.35 1023.17 1023.18 1023.31 1023.43 1023.40 1023.59 1023.62
1010.79 1011.62 1012.63 1013.68 1014.83 1015.73 1016.58 1017.08 1017.77 1018.70 1019.47 1020.22 1020.57 1021.15 1021.63 1021.99 1022.22 1022.56 1022.96 1023.35 1023.40 1023.47 1023.40 1023.44 1023.47 1023.39 1023.21 1023.31 1023.41 1023.48 1023.48 1023.67
1010.16 1011.09 1012.06 1013.13 1014.32 1015.31 1016.26 1016.92 1017.57 1018.44 1019.30 1019.92 1020.46 1020.87 1021.34 1021.81 1022.00 1022.30 1022.76 1023.08 1023.11 1023.26 1023.42 1023.40 1023.29 1023.21 1023.22 1023.41 1023.51 1023.46 1023.80 1024.22
1009.47 1010.41 1011.48 1012.67 1013.86 1015.00 1015.98 1016.84 1017.49 1018.33 1019.15 1019.81 1020.32 1020.69 1021.04 1021.44 1022.08 1022.37 1022.71 1022.91 1023.15 1023.20 1023.23 1023.16 1022.96 1023.04 1023.28 1023.28 1023.23 1023.12 1023.32 1023.88
1008.75 1009.64 1010.71 1012.14 1013.59 1014.76 1015.85 1016.78 1017.50 1018.28 1018.97 1019.67 1019.99 1020.26 1020.66 1021.14 1021.64 1022.28 1022.56 1022.74 1023.04 1023.08 1023.02 1022.86 1022.75 1022.84 1023.06 1023.14 1023.23 1023.60 1023.82 1023.53
1008.06 1009.01 1010.19 1011.62 1013.05 1014.35 1015.46 1016.48 1017.40 1018.16 1019.02 1019.44 1019.62 1019.97 1020.50 1021.09 1021.51 1021.99 1022.30 1022.45 1022.68 1022.70 1022.60 1022.47 1022.52 1022.86 1023.28 1023.72 1023.88 1023.80 1023.95 1023.90
1007.89 1008.79 1009.94 1011.25 1012.50 1013.78 1014.93 1015.98 1017.03 1018.02 1018.90 1019.26 1019.45 1019.84 1020.32 1020.78 1021.45 1021.81 1021.96 1022.09 1022.16 1022.12 1022.12 1022.12 1022.29 1022.45 1023.58 1023.71 1023.73 1024.13 1024.20 1024.02
1008.52 1009.05 1009.86 1010.92 1012.00 1013.13 1014.35 1015.58 1016.69 1017.72 1018.58 1019.13 1019.64 1020.05 1020.70 1021.07 1021.31 1021.50 1021.18 1021.16 1021.44 1021.50 1021.61 1021.76 1022.07 1022.82 1023.37 1023.59 1023.93 1024.06 1024.28 1023.89
1009.02 1009.48 1010.06 1010.78 1011.67 1012.72 1013.95 1015.13 1016.37 1017.62 1018.64 1019.37 1019.94 1020.35 1020.94 1020.85 1020.64 1020.87 1020.96 1020.84 1020.83 1021.00 1021.17 1021.38 1021.71 1022.86 1023.43 1023.64 1023.78 1024.04 1024.11 1023.70
Wind_Speed
14 13 13 16 15 12 11 8 9 7 5 5 5 4 4 4 5 5 6 5 7 6 3 3 2 3 4 4 4 3 3 3
12 11 11 14 15 13 12 11 9 8 7 7 5 5 5 6 5 6 7 5 5 3 5 5 5 5 4 5 4 4 4 4
12 10 13 14 15 13 12 12 10 7 5 4 3 6 5 6 5 5 6 6 6 5 4 4 5 4 5 4 5 4 2 4
12 11 8 8 11 12 11 7 10 5 9 6 4 6 4 4 4 4 4 5 5 5 5 4 4 3 3 4 4 5 3 4
13 11 11 8 7 8 10 11 11 6 4 6 7 4 6 4 5 5 5 7 7 7 6 6 6 5 5 4 4 2 3 3
15 15 10 6 8 8 7 11 9 6 6 7 6 7 5 5 5 5 5 5 5 5 6 7 6 4 5 5 5 6 5 5
14 16 15 14 11 9 9 11 8 7 8 9 9 8 7 6 3 3 4 3 3 5 6 5 5 5 5 4 7 7 5 4
15 19 16 13 12 10 9 11 10 9 9 9 8 8 7 8 3 3 2 3 3 4 4 4 4 5 6 5 4 3 3 2
11 14 13 12 11 10 10 12 12 11 9 8 7 7 4 5 4 3 1 1 2 4 3 5 6 5 2 4 3 3 4 4
14 14 13 14 13 12 10 12 13 12 9 7 7 6 6 5 5 3 3 2 3 4 4 6 6 1 1 1 4 5 2 2
11 12 12 13 13 12 9 11 13 12 10 7 7 7 6 6 4 4 2 1 3 4 5 5 6 5 5 5 4 3 4 2
13 12 13 13 13 12 10 10 13 11 10 8 8 7 6 5 5 4 2 1 4 5 5 5 5 6 6 5 5 5 2 3
14 13 12 12 12 12 12 9 11 11 8 8 6 7 6 5 4 4 2 2 3 4 5 5 6 5 5 6 6 5 6 7
14 14 13 11 10 10 11 9 10 9 10 8 8 7 4 5 3 2 1 2 3 4 5 6 4 4 4 6 6 2 3 4
13 13 13 12 10 11 10 9 6 8 8 8 9 7 6 4 3 1 1 2 3 5 6 6 3 3 5 6 5 7 5 4
12 11 11 12 12 11 11 9 8 6 5 8 5 6 5 3 2 3 3 1 4 6 6 6 3 1 3 5 5 5 6 6
5 5 8 11 12 12 11 10 9 8 7 5 2 5 3 4 4 3 4 6 6 5 5 5 4 3 10 9 4 3 5 6
6 3 5 7 10 11 11 9 9 7 6 4 4 5 5 3 6 6 6 6 6 5 6 4 3 8 11 10 6 0 5 5
4 3 4 6 7 9 10 10 10 7 5 3 6 1 4 8 5 6 6 5 5 4 5 5 2 7 11 10 6 2 6 5
Wind_Direction
151 163 154 141 139 151 142 139 125 172 171 115 141 138 138 103 77 74 32 77 52 27 61 88 229 321 9 6 342 305 284 339
151 168 154 139 143 154 157 149 163 202 152 147 156 146 108 97 84 71 63 26 66 48 34 8 355 11 1 339 306 333 335 332
163 178 158 155 153 157 163 161 184 210 132 95 78 102 82 104 117 115 89 60 33 25 21 353 5 349 329 330 351 319 323 5
171 175 162 156 152 147 166 165 185 97 107 101 90 100 132 149 126 105 63 65 27 9 7 0 341 316 328 329 322 309 10 353
167 179 179 140 144 154 165 169 104 104 125 87 85 79 90 80 65 61 28 44 25 8 10 21 3 344 333 313 332 359 357 339
168 178 133 137 151 166 139 110 112 123 94 112 97 100 104 83 61 43 43 22 29 18 20 14 343 328 310 312 311 30 39 30
171 142 157 177 170 126 118 122 129 110 90 79 84 84 84 76 69 48 41 356 6 19 23 334 326 312 315 21 55 54 38 21
171 159 175 147 131 122 130 138 133 122 115 111 109 109 111 113 90 87 15 14 357 12 347 336 326 323 54 39 44 15 34 320
165 162 140 145 141 150 169 149 149 138 131 129 129 132 124 116 118 94 73 35 331 327 343 324 308 45 11 37 19 313 263 250
178 163 155 154 166 173 174 165 154 147 148 136 133 131 106 129 139 113 80 20 306 351 339 313 309 244 193 220 242 248 271 316
184 171 164 164 171 171 176 177 157 157 146 149 158 142 156 148 142 126 91 311 317 311 316 314 321 309 222 240 267 292 299 258
187 185 177 170 168 171 183 187 159 160 153 178 158 159 157 170 161 141 124 317 299 317 315 313 308 306 312 330 318 302 272 286
191 191 187 171 168 177 185 187 171 162 174 170 166 165 178 181 173 140 151 272 304 313 305 298 284 293 7 343 328 328 6 21
195 190 182 176 179 183 182 193 179 170 187 166 180 184 193 184 167 157 222 291 328 303 301 283 295 352 329 273 267 0 4 256
204 195 179 174 179 182 190 190 172 186 176 196 198 185 180 161 136 203 259 294 323 296 278 277 319 306 316 326 17 20 344 329
212 200 177 167 180 186 189 179 184 169 200 219 195 145 137 136 196 218 254 225 270 258 266 268 251 310 305 52 28 0 344 325
238 199 171 180 185 186 187 186 180 167 206 233 144 115 136 78 9 278 260 237 245 259 279 282 269 194 142 116 92 10 310 304
299 253 195 191 191 182 188 180 156 174 189 184 174 88 58 251 245 249 248 243 240 245 253 272 267 120 144 130 116 345 298 296
302 260 218 202 191 181 176 176 161 170 174 130 73 78 266 242 237 250 263 259 246 248 247 258 231 133 156 143 141 261 272 311